Weather History for PGSN - February, 2013

Change the Weather History Date:

Monday, February 25, 2013

  Actual Average Record
Temperature  
Mean Temperature 77 °F -  
Max Temperature 81 °F 82 °F 86 °F (2014)
Min Temperature 73 °F 73 °F 71 °F (1997)
Cooling Degree Days 12    
Growing Degree Days 27 (Base 50)    
Moisture  
Dew Point 71 °F    
Average Humidity 83    
Maximum Humidity 93    
Minimum Humidity 72    
Precipitation  
Precipitation 0.00 in - - ()
Sea Level Pressure  
Sea Level Pressure 30.00 in    
Wind  
Wind Speed 18 mph (NE)    
Max Wind Speed 22 mph    
Max Gust Speed 32 mph    
Visibility 10 miles    
Events      
Averages and records for this station are not official NWS values.
T = Trace of Precipitation, MM = Missing Value Source: NWS Daily Summary

Daily Weather History Graph

Daily Weather History Graph

Search for Another Location

Airport or City:

Trip Planner

Search our weather history database for the weather conditions in past years. The results will help you decide how hot, cold, wet, or windy it might be!

Date:

Astronomy

Feb. 25, 2013 Rise Set
Actual Time 6:36 AM ChST 6:23 PM ChST
Civil Twilight 6:15 AM ChST 6:45 PM ChST
Nautical Twilight 5:50 AM ChST 7:10 PM ChST
Astronomical Twilight 5:25 AM ChST 7:35 PM ChST
Moon 5:52 PM ChST (2/25) 5:45 AM ChST (2/25)
Length of Visible Light 12h 30m
Length of Day
11h 47m
Waxing Gibbous, 99% of the Moon is Illuminated
Feb 25
Waxing Gibbous
Feb 26
Full
Mar 5
Last Quarter
Mar 12
New
Mar 20
First Quarter

Hourly Weather History & Observations

Time (ChST) Temp. Heat Index Dew Point Humidity Pressure Visibility Wind Dir Wind Speed Gust Speed Precip Events Conditions
12:54 AM 75.0 °F - 70.0 °F 84% 30.01 in 10.0 mi NE 19.6 mph 26.5 mph N/A   Clear
1:54 AM 73.9 °F - 70.0 °F 87% 29.99 in 10.0 mi NE 16.1 mph 23.0 mph N/A   Scattered Clouds
2:54 AM 73.9 °F - 70.0 °F 87% 29.98 in 10.0 mi NE 17.3 mph 24.2 mph N/A   Scattered Clouds
3:54 AM 73.9 °F - 70.0 °F 87% 29.98 in 10.0 mi NNE 11.5 mph - N/A   Partly Cloudy
4:54 AM 73.9 °F - 69.1 °F 85% 29.98 in 10.0 mi NE 17.3 mph - N/A   Mostly Cloudy
5:54 AM 75.0 °F - 70.0 °F 84% 29.99 in 10.0 mi NNE 15.0 mph - N/A   Mostly Cloudy
6:54 AM 75.0 °F - 70.0 °F 84% 30.00 in 10.0 mi NE 16.1 mph - N/A   Scattered Clouds
7:54 AM 75.0 °F - 71.1 °F 87% 30.02 in 10.0 mi NE 19.6 mph - N/A   Scattered Clouds
8:54 AM 77.0 °F - 72.0 °F 84% 30.03 in 10.0 mi NE 17.3 mph 23.0 mph N/A   Clear
9:54 AM 78.1 °F - 71.1 °F 79% 30.05 in 10.0 mi NE 17.3 mph 28.8 mph N/A   Mostly Cloudy
10:54 AM 81.0 °F 84.9 °F 71.1 °F 72% 30.03 in 10.0 mi NE 21.9 mph 32.2 mph N/A   Mostly Cloudy
11:54 AM 78.1 °F - 70.0 °F 76% 30.02 in 10.0 mi NE 17.3 mph 28.8 mph N/A   Scattered Clouds
12:54 PM 81.0 °F 85.2 °F 72.0 °F 74% 29.99 in 10.0 mi ENE 19.6 mph 27.6 mph N/A   Mostly Cloudy
1:54 PM 80.1 °F 83.6 °F 71.1 °F 74% 29.98 in 10.0 mi NE 21.9 mph 27.6 mph N/A   Mostly Cloudy
2:54 PM 80.1 °F 83.8 °F 72.0 °F 76% 29.96 in 10.0 mi NE 19.6 mph 24.2 mph N/A   Scattered Clouds
3:54 PM 77.0 °F - 71.1 °F 82% 29.96 in 10.0 mi NNE 19.6 mph 27.6 mph 0.00 in   Mostly Cloudy
4:54 PM 75.9 °F - 71.1 °F 85% 29.97 in 10.0 mi NE 17.3 mph 23.0 mph N/A   Mostly Cloudy
5:18 PM 77.0 °F - 71.6 °F 83% 29.91 in 10.0 mi NE 20.7 mph 28.8 mph N/A   Mostly Cloudy
5:54 PM 75.9 °F - 70.0 °F 82% 29.98 in 10.0 mi NNE 20.7 mph 28.8 mph N/A   Mostly Cloudy
6:54 PM 75.9 °F - 70.0 °F 82% 30.00 in 10.0 mi NE 18.4 mph 26.5 mph N/A   Mostly Cloudy
7:05 PM 75.2 °F - 69.8 °F 83% 29.93 in 10.0 mi NE 15.0 mph 25.3 mph N/A   Mostly Cloudy
7:54 PM 75.0 °F - 70.0 °F 84% 30.01 in 10.0 mi NE 16.1 mph 25.3 mph N/A   Mostly Cloudy
8:54 PM 73.9 °F - 71.1 °F 91% 30.03 in 10.0 mi NE 15.0 mph - N/A   Mostly Cloudy
9:54 PM 73.0 °F - 71.1 °F 93% 30.04 in 10.0 mi NE 21.9 mph 26.5 mph N/A   Mostly Cloudy
10:54 PM 73.9 °F - 70.0 °F 87% 30.03 in 10.0 mi NE 16.1 mph - N/A   Overcast
11:54 PM 75.0 °F - 71.1 °F 87% 30.02 in 10.0 mi NE 17.3 mph - N/A   Overcast